Hourly Data Report for May 23, 2022

LYNN LAKE
MANITOBA
Current Station Operator: NAVCAN

56°51'50.000" N
101°04'34.000" W
356.60 m
5061645
71078
YYL

Download Data

Hourly Data (May 2022)
Hourly Data Report for May 23, 2022
TIME
LST
Temp Definition
°C
Dew Point Definition
°C
Rel Hum Definition
%
Precip. Amount Definition
mm

Wind Dir Definition
10's deg

Wind Spd Definition
km/h
Visibility Definition
km
Stn Press Definition
kPa
Hmdx Definition


Wind Chill Definition


Weather Definition


00:00 10.2 -3.1 39 0.0 29 5 16.1 96.64     LegendNANA
01:00 9.5 -0.4 50 0.0 32 13 16.1 96.64     LegendNANA
02:00 5.9 0.5 68 0.0 34 11 16.1 96.58     LegendNANA
03:00 5.7 2.9 82 0.0 30 11 16.1 96.69     LegendNANA
04:00 4.5 2.8 89 0.0 31 8 16.1 96.65     LegendNANA
05:00 4.2 2.8 91 0.0 29 9 16.1 96.70     LegendNANA
06:00 4.6 1.9 83 0.0 29 13 16.1 96.70     LegendNANA
07:00 5.1 1.0 75 0.0 29 18 16.1 96.70     LegendNANA
08:00 4.5 0.3 74 0.0 29 24 16.1 96.71     LegendNANA
09:00 5.7 0.6 70 0.0 29 24 16.1 96.71     LegendNANA
10:00 7.1 -0.2 60 0.0 28 22 16.1 96.69     LegendNANA
11:00 7.1 -0.6 58 0.0 29 28 16.1 96.73     LegendNANA
12:00 6.8 -1.6 55 0.0 32 26 16.1 96.75     LegendNANA
13:00 6.6 -1.8 55 0.0 29 22 16.1 96.77     LegendNANA
14:00 6.2 -1.4 58 0.0 32 24 16.1 96.83     LegendNANA
15:00 6.7 -1.7 55 0.0 32 30 16.1 96.88     LegendNANA
16:00 6.3 -1.1 59 0.0 31 28 16.1 96.94     LegendNANA
17:00 6.0 -1.5 59 0.0 33 22 16.1 96.98     LegendNANA
18:00 4.2 -2.9 60 0.0 34 30 16.1 97.03     LegendNANA
19:00 3.2 -3.6 61 0.0 33 22 16.1 97.07     LegendNANA
20:00 2.0 -3.9 65 0.0 34 26 16.1 97.14     LegendNANA
21:00 0.6 -4.3 70 0.0 33 22 16.1 97.21     LegendNANA
22:00 -0.2 -4.8 71 0.0 35 21 16.1 97.28   -6 LegendNANA
23:00 -0.8 -4.5 76 0.0 35 22 16.1 97.31   -7 LegendNANA

Notes on Data Quality.

Legend

  • E = Estimated
  • M = Missing
  • NA = Not Available*
  • [empty] = Indicates an unobserved value
Date modified: